Weather History for KRNV - March, 2014

Change the Weather History Date:

Tuesday, March 4, 2014

  Actual Average (KGLH) Record (KGLH)
Temperature  
Mean Temperature 27 °F 52 °F  
Max Temperature 32 °F 62 °F 84 °F (1923)
Min Temperature 22 °F 41 °F 17 °F (1943)
Degree Days  
Heating Degree Days 38 14  
Month to date heating degree days 57  
Since 1 July heating degree days 2366  
Cooling Degree Days 0 0  
Month to date cooling degree days 0  
Year to date cooling degree days 5  
Moisture  
Dew Point 23 °F    
Average Humidity 86    
Maximum Humidity 96    
Minimum Humidity 79    
Precipitation  
Precipitation 0.00 in 0.13 in 2.30 in (1945)
Month to date precipitation 0.50  
Year to date precipitation 10.49  
Sea Level Pressure  
Sea Level Pressure 30.22 in    
Wind  
Wind Speed 8 mph (NNE)    
Max Wind Speed 14 mph    
Max Gust Speed -    
Visibility 10 miles    
Events      
T = Trace of Precipitation, MM = Missing Value Source: NWS Daily Summary

Daily Weather History Graph

Daily Weather History Graph

Search for Another Location

Airport or City:

Trip Planner

Search our weather history database for the weather conditions in past years. The results will help you decide how hot, cold, wet, or windy it might be!

Date:

Astronomy

Mar. 04, 2014 Rise Set
Actual Time 6:27 AM CST 6:02 PM CST
Civil Twilight 6:02 AM CST 6:27 PM CST
Nautical Twilight 5:33 AM CST 6:55 PM CST
Astronomical Twilight 5:05 AM CST 7:24 PM CST
Moon 8:25 AM CST (3/4) 9:56 PM CST (3/4)
Length of Visible Light 12h 24m
Length of Day
11h 34m
Waxing Crescent, 15% of the Moon is Illuminated
Mar 4
Waxing Crescent
Mar 8
First Quarter
Mar 16
Full
Mar 23
Last Quarter
Mar 30
New

Hourly Weather History & Observations

Time (CST) Temp. Windchill Dew Point Humidity Pressure Visibility Wind Dir Wind Speed Gust Speed Precip Events Conditions
12:15 AM 22.6 °F 11.3 °F 19.0 °F 86% 30.32 in 10.0 mi North 11.5 mph - N/A   Overcast
12:35 AM 23.0 °F 11.1 °F 19.4 °F 86% 30.31 in 10.0 mi North 12.7 mph - N/A   Overcast
12:55 AM 23.0 °F 11.7 °F 19.9 °F 88% 30.30 in 10.0 mi North 11.5 mph - N/A   Overcast
1:15 AM 23.0 °F 11.1 °F 19.8 °F 87% 30.30 in 10.0 mi NNE 12.7 mph - N/A   Overcast
1:35 AM 23.0 °F 10.6 °F 19.6 °F 87% 30.27 in 10.0 mi NNE 13.8 mph - N/A   Overcast
1:55 AM 23.0 °F 11.7 °F 19.6 °F 87% 30.27 in 10.0 mi NNE 11.5 mph - N/A   Overcast
2:15 AM 23.0 °F 13.1 °F 19.4 °F 86% 30.27 in 10.0 mi NNE 9.2 mph - N/A   Overcast
2:35 AM 23.0 °F 13.1 °F 19.4 °F 86% 30.27 in 10.0 mi NNE 9.2 mph - N/A   Overcast
2:55 AM 23.0 °F 13.1 °F 19.4 °F 86% 30.27 in 10.0 mi NNE 9.2 mph - N/A   Overcast
3:15 AM 23.0 °F 13.1 °F 19.4 °F 86% 30.26 in 10.0 mi NNE 9.2 mph - N/A   Overcast
3:35 AM 23.0 °F 13.1 °F 19.2 °F 85% 30.26 in 10.0 mi NNE 9.2 mph - N/A   Overcast
3:55 AM 23.0 °F 13.9 °F 19.0 °F 85% 30.27 in 10.0 mi NNE 8.1 mph - N/A   Overcast
4:15 AM 22.8 °F 15.5 °F 18.7 °F 84% 30.25 in 10.0 mi NE 5.8 mph - N/A   Overcast
4:35 AM 23.0 °F 14.7 °F 19.0 °F 85% 30.25 in 10.0 mi NNE 6.9 mph - N/A   Overcast
4:55 AM 22.8 °F 15.5 °F 18.7 °F 84% 30.24 in 10.0 mi ENE 5.8 mph - N/A   Overcast
5:15 AM 23.0 °F 14.7 °F 19.4 °F 86% 30.23 in 10.0 mi ENE 6.9 mph - N/A   Overcast
5:35 AM 23.0 °F 14.7 °F 19.2 °F 85% 30.24 in 10.0 mi ENE 6.9 mph - N/A   Overcast
5:55 AM 23.4 °F 15.2 °F 19.6 °F 85% 30.23 in 10.0 mi NE 6.9 mph - N/A   Overcast
6:15 AM 23.4 °F 16.2 °F 19.4 °F 85% 30.25 in 10.0 mi NNE 5.8 mph - N/A   Overcast
6:35 AM 23.5 °F 15.4 °F 19.6 °F 85% 30.24 in 10.0 mi NNE 6.9 mph - N/A   Overcast
6:55 AM 23.7 °F 14.7 °F 19.9 °F 85% 30.25 in 10.0 mi NNE 8.1 mph - N/A   Overcast
7:15 AM 23.9 °F 15.8 °F 20.1 °F 85% 30.25 in 10.0 mi NE 6.9 mph - N/A   Overcast
7:35 AM 24.1 °F 16.0 °F 20.5 °F 86% 30.25 in 10.0 mi North 6.9 mph - N/A   Overcast
7:55 AM 24.3 °F 17.3 °F 20.3 °F 85% 30.27 in 10.0 mi NNE 5.8 mph - N/A   Overcast
8:15 AM 24.6 °F 16.7 °F 20.5 °F 84% 30.27 in 10.0 mi NNE 6.9 mph - N/A   Overcast
8:35 AM 25.0 °F 18.1 °F 21.0 °F 85% 30.27 in 10.0 mi NNE 5.8 mph - N/A   Overcast
8:55 AM 25.3 °F 18.5 °F 21.0 °F 84% 30.28 in 10.0 mi NNE 5.8 mph - N/A   Overcast
9:15 AM 25.7 °F 19.0 °F 21.4 °F 84% 30.27 in 10.0 mi North 5.8 mph - N/A   Overcast
9:35 AM 26.2 °F 17.8 °F 21.6 °F 82% 30.27 in 10.0 mi NNE 8.1 mph - N/A   Overcast
9:55 AM 26.4 °F 19.8 °F 21.7 °F 82% 30.26 in 10.0 mi NNE 5.8 mph - N/A   Overcast
10:15 AM 26.8 °F 22.8 °F 22.1 °F 83% 30.27 in 10.0 mi NNE 3.5 mph - N/A   Overcast
10:35 AM 26.8 °F 19.3 °F 22.3 °F 83% 30.26 in 10.0 mi North 6.9 mph - N/A   Overcast
10:55 AM 27.1 °F 20.7 °F 22.8 °F 84% 30.26 in 10.0 mi North 5.8 mph - N/A   Overcast
11:15 AM 27.3 °F 20.9 °F 22.6 °F 83% 30.27 in 10.0 mi North 5.8 mph - N/A   Overcast
11:35 AM 27.5 °F 22.2 °F 22.8 °F 83% 30.27 in 10.0 mi NNW 4.6 mph - N/A   Overcast
11:55 AM 28.2 °F 23.1 °F 23.2 °F 81% 30.26 in 10.0 mi North 4.6 mph - N/A   Overcast
12:15 PM 28.2 °F 24.4 °F 23.4 °F 82% 30.25 in 10.0 mi NNW 3.5 mph - N/A   Overcast
12:35 PM 28.2 °F 23.1 °F 22.8 °F 80% 30.24 in 10.0 mi North 4.6 mph - N/A   Overcast
12:55 PM 28.4 °F 23.3 °F 23.5 °F 82% 30.23 in 10.0 mi North 4.6 mph - N/A   Overcast
1:15 PM 28.8 °F 25.0 °F 23.4 °F 80% 30.22 in 10.0 mi North 3.5 mph - N/A   Overcast
1:35 PM 29.1 °F - 24.1 °F 81% 30.22 in 10.0 mi Calm Calm - N/A   Overcast
1:55 PM 29.3 °F - 23.9 °F 80% 30.21 in 10.0 mi Calm Calm - N/A   Overcast
2:15 PM 29.3 °F - 23.9 °F 80% 30.21 in 10.0 mi Calm Calm - N/A   Overcast
2:35 PM 29.8 °F 26.3 °F 24.6 °F 81% 30.19 in 10.0 mi North 3.5 mph - N/A   Overcast
2:55 PM 30.4 °F 26.9 °F 24.6 °F 79% 30.18 in 10.0 mi NE 3.5 mph - N/A   Overcast
3:15 PM 30.6 °F 24.7 °F 24.8 °F 79% 30.17 in 10.0 mi NNE 5.8 mph - N/A   Mostly Cloudy
3:35 PM 30.7 °F 27.3 °F 25.3 °F 80% 30.18 in 10.0 mi NNE 3.5 mph - N/A   Mostly Cloudy
3:55 PM 30.7 °F 23.3 °F 25.9 °F 82% 30.16 in 10.0 mi NNE 8.1 mph - N/A   Scattered Clouds
4:15 PM 30.9 °F 24.3 °F 25.9 °F 82% 30.17 in 10.0 mi NNE 6.9 mph - N/A   Scattered Clouds
4:35 PM 31.1 °F 23.7 °F 26.4 °F 83% 30.16 in 10.0 mi NNE 8.1 mph - N/A   Scattered Clouds
4:55 PM 32.0 °F 25.6 °F 26.6 °F 80% 30.16 in 10.0 mi North 6.9 mph - N/A   Clear
5:15 PM 31.5 °F 24.9 °F 26.4 °F 82% 30.16 in 10.0 mi NE 6.9 mph - N/A   Clear
5:35 PM 30.9 °F 25.2 °F 26.1 °F 82% 30.16 in 10.0 mi NNE 5.8 mph - N/A   Clear
5:55 PM 30.2 °F 25.4 °F 26.2 °F 85% 30.16 in 10.0 mi NNE 4.6 mph - N/A   Clear
6:15 PM 30.2 °F 25.4 °F 26.4 °F 86% 30.16 in 10.0 mi NNE 4.6 mph - N/A   Clear
6:35 PM 30.2 °F 25.4 °F 27.3 °F 89% 30.16 in 10.0 mi NNE 4.6 mph - N/A   Clear
6:55 PM 30.2 °F - 27.5 °F 90% 30.16 in 10.0 mi Calm Calm - N/A   Clear
7:15 PM 30.2 °F 26.7 °F 27.3 °F 89% 30.16 in 10.0 mi NNE 3.5 mph - N/A   Clear
7:35 PM 30.6 °F 27.1 °F 27.7 °F 89% 30.17 in 10.0 mi North 3.5 mph - N/A   Clear
7:55 PM 30.6 °F - 27.5 °F 88% 30.18 in 10.0 mi Calm Calm - N/A   Clear
8:15 PM 30.6 °F - 27.3 °F 88% 30.18 in 10.0 mi Calm Calm - N/A   Clear
8:35 PM 30.2 °F 25.4 °F 27.7 °F 90% 30.20 in 10.0 mi NNW 4.6 mph - N/A   Clear
8:55 PM 30.2 °F 25.4 °F 27.9 °F 91% 30.20 in 10.0 mi North 4.6 mph - N/A   Clear
9:15 PM 29.8 °F 23.9 °F 28.0 °F 93% 30.18 in 10.0 mi North 5.8 mph - N/A   Clear
9:35 PM 29.3 °F 22.3 °F 27.1 °F 92% 30.17 in 10.0 mi NE 6.9 mph - N/A   Clear
9:55 PM 28.9 °F 21.9 °F 27.0 °F 92% 30.17 in 10.0 mi NNE 6.9 mph - N/A   Clear
10:15 PM 29.3 °F 22.3 °F 27.9 °F 94% 30.17 in 10.0 mi North 6.9 mph - N/A   Clear
10:35 PM 28.9 °F 21.9 °F 27.3 °F 94% 30.17 in 10.0 mi North 6.9 mph - N/A   Clear
10:55 PM 28.2 °F 23.1 °F 26.6 °F 94% 30.17 in 10.0 mi NE 4.6 mph - N/A   Clear
11:15 PM 27.9 °F - 26.4 °F 94% 30.16 in 10.0 mi Calm Calm - N/A   Clear
11:35 PM 27.5 °F 23.6 °F 26.4 °F 96% 30.16 in 10.0 mi NNE 3.5 mph - N/A   Clear
11:55 PM 27.5 °F - 26.6 °F 96% 30.15 in 10.0 mi Calm Calm - N/A   Clear